This demonstration page uses our WeatherBlox Daily Observations layout. Learn more.

Left ArrowRight Arrow

34.74481, -87.66753

Hourly Observations for December 16, 2018

Temp ( °F °C ) Dew Point ( °F °C ) Humidity (%) Winds ( mph kmh ) Pressure ( in mb ) Visibility ( mi km ) Precip ( " mm )
12:23 am 00:23 Mostly Cloudy 49 9.4 47 8.3 93 93 W 6 9 30.06 1018 10 16 0.00 0.00
12:39 am 00:39 Cloudy 49 9.4 47 8.3 93 93 W 10 17 30.09 1019 10 16 0.00 0.00
12:53 am 00:53 Cloudy 49 9.4 47 8.3 93 93 WSW 9 15 30.05 1018 10 16 0.00 0.00
1:53 am 01:53 Cloudy 49 9.4 47 8.3 93 93 WNW 13 20 30.11 1020 10 16 0.00 0.00
2:53 am 02:53 Cloudy with Mist and Fog 49 9.4 46 7.8 90 90 WNW 12 19 30.11 1020 6 10 0.00 0.00
3:53 am 03:53 Cloudy 48 8.9 46 7.8 93 93 WNW 10 17 30.12 1020 9 14 0.00 0.00
4:53 am 04:53 Cloudy 48 8.9 45 7.2 89 89 W 17 28 30.14 1021 10 16 0.00 0.00
5:53 am 05:53 Cloudy 48 8.9 45 7.2 89 89 WNW 15 24 30.18 1022 10 16 0.00 0.00
6:53 am 06:53 Cloudy 48 8.9 45 7.2 89 89 NW 9 15 30.19 1022 10 16 0.00 0.00
7:53 am 07:53 Cloudy 48 8.9 45 7.2 89 89 WNW 10 17 30.21 1023 10 16 0.00 0.00
8:53 am 08:53 Cloudy 48 8.9 45 7.2 89 89 WNW 10 17 30.23 1024 10 16 0.00 0.00
9:20 am 09:20 Cloudy 49 9.4 45 7.2 86 86 WNW 10 17 30.24 1024 10 16 0.00 0.00
9:29 am 09:29 Cloudy 49 9.4 45 7.2 86 86 NW 7 11 30.24 1024 10 16 0.00 0.00
9:37 am 09:37 Cloudy 50 10 45 7.2 83 83 WNW 10 17 30.24 1024 10 16 0.00 0.00
9:53 am 09:53 Cloudy 50 10 45 7.2 83 83 NNW 9 15 30.24 1024 10 16 0.00 0.00
10:53 am 10:53 Cloudy 51 10.6 45 7.2 80 80 WNW 9 15 30.23 1024 10 16 0.00 0.00
11:25 am 11:25 Mostly Sunny 53 11.7 46 7.8 77 77 W 9 15 30.21 1023 10 16 0.00 0.00
11:53 am 11:53 Sunny 54 12.2 46 7.8 75 75 W 8 13 30.20 1023 10 16 0.00 0.00
12:53 pm 12:53 Sunny 57 13.9 46 7.8 67 67 WSW 8 13 30.18 1022 10 16 0.00 0.00
1:53 pm 13:53 Sunny 58 14.4 45 7.2 62 62 W 9 15 30.19 1022 10 16 0.00 0.00
2:53 pm 14:53 Sunny 60 15.6 45 7.2 58 58 WNW 9 15 30.19 1022 10 16 0.00 0.00
3:53 pm 15:53 Sunny 59 15 44 6.7 58 58 W 12 19 30.19 1023 10 16 0.00 0.00
4:53 pm 16:53 Clear 56 13.3 43 6.1 62 62 WNW 9 15 30.20 1023 10 16 0.00 0.00
5:53 pm 17:53 Clear 53 11.7 44 6.7 72 72 WNW 6 9 30.21 1023 10 16 0.00 0.00
6:53 pm 18:53 Clear 52 11.1 43 6.1 72 72 W 5 7 30.22 1024 10 16 0.00 0.00
7:53 pm 19:53 Clear 48 8.9 43 6.1 83 83 W 5 7 30.23 1024 10 16 0.00 0.00
8:53 pm 20:53 Clear 47 8.3 44 6.7 90 90 WNW 7 11 30.24 1024 10 16 0.00 0.00
9:53 pm 21:53 Clear 46 7.8 43 6.1 89 89 WNW 3 6 30.25 1024 10 16 0.00 0.00
10:53 pm 22:53 Clear 47 8.3 44 6.7 90 90 WNW 5 7 30.23 1024 10 16 0.00 0.00
11:53 pm 23:53 Clear 45 7.2 43 6.1 93 93 W 3 6 30.23 1024 10 16 0.00 0.00

Powered by AerisWeather